Maxwell AFB, AL

2:38 PM CDT on March 30, 2017 (GMT -0500)
Maxwell Air Force Base

Weather History for KMXF - May, 2013

Change the Weather History Date:

Monday, May 13, 2013

  Actual Average Record
Temperature  
Mean Temperature 61 °F -  
Max Temperature 76 °F 83 °F 93 °F (2000)
Min Temperature 46 °F 61 °F 44 °F (2001)
Degree Days  
Heating Degree Days 4    
Growing Degree Days 11 (Base 50)    
Moisture  
Dew Point 43 °F    
Average Humidity 57    
Maximum Humidity 91    
Minimum Humidity 27    
Precipitation  
Precipitation 0.00 in - - ()
Sea Level Pressure  
Sea Level Pressure 30.22 in    
Wind  
Wind Speed 4 mph (NNW)    
Max Wind Speed 12 mph    
Max Gust Speed -    
Visibility 10 miles    
Events      
Averages and records for this station are not official NWS values.
T = Trace of Precipitation, MM = Missing Value Source: NWS Daily Summary

Daily Weather History Graph

Daily Weather History Graph

Search for Another Location

Airport or City:

Trip Planner

Search our weather history database for the weather conditions in past years. The results will help you decide how hot, cold, wet, or windy it might be!

Date:

Astronomy

May. 13, 2013 Rise Set
Actual Time 5:48 AM CDT 7:35 PM CDT
Civil Twilight 5:21 AM CDT 8:02 PM CDT
Nautical Twilight 4:49 AM CDT 8:34 PM CDT
Astronomical Twilight 4:15 AM CDT 9:09 PM CDT
Moon 8:35 AM CDT (5/13) 10:44 PM CDT (5/13)
Length of Visible Light 14h 40m
Length of Day
13h 46m
Waxing Crescent, 12% of the Moon is Illuminated
May 13
Waxing Crescent
May 17
First Quarter
May 24
Full
May 31
Last Quarter
Jun 8
New

Hourly Weather History & Observations

Time (CDT) Temp. Dew Point Humidity Pressure Visibility Wind Dir Wind Speed Gust Speed Precip Events Conditions
12:58 AM 54.5 °F 41.2 °F 61% 30.15 in 10.0 mi North 3.5 mph - N/A   Clear
1:58 AM 50.7 °F 43.7 °F 77% 30.16 in 10.0 mi North 2.3 mph - N/A   Partly Cloudy
2:58 AM 49.3 °F 45.0 °F 85% 30.16 in 10.0 mi Calm Calm - N/A   Clear
3:58 AM 46.6 °F 44.1 °F 91% 30.18 in 10.0 mi West 2.3 mph - N/A   Clear
4:58 AM 46.2 °F 43.7 °F 91% 30.20 in 10.0 mi Calm Calm - N/A   Clear
5:58 AM 48.0 °F 41.7 °F 79% 30.23 in 10.0 mi North 2.3 mph - N/A   Clear
6:58 AM 50.9 °F 43.0 °F 74% 30.25 in 10.0 mi NNE 5.8 mph - N/A   Clear
7:58 AM 55.8 °F 43.5 °F 63% 30.28 in 10.0 mi NNE 3.5 mph - N/A   Clear
8:58 AM 60.6 °F 41.7 °F 50% 30.30 in 10.0 mi North 4.6 mph - N/A   Clear
9:58 AM 64.8 °F 36.9 °F 36% 30.29 in 10.0 mi Variable 4.6 mph - N/A   Clear
10:58 AM 66.2 °F 38.3 °F 36% 30.29 in 10.0 mi Variable 3.5 mph - N/A   Clear
11:58 AM 69.6 °F 36.5 °F 30% 30.27 in 10.0 mi NNE 8.1 mph - N/A   Clear
12:58 PM 70.2 °F 35.6 °F 28% 30.26 in 10.0 mi Variable 1.2 mph - N/A   Clear
1:58 PM 72.3 °F 36.9 °F 27% 30.24 in 10.0 mi NW 8.1 mph - N/A   Clear
3:58 PM 75.9 °F 39.9 °F 27% 30.20 in 10.0 mi North 9.2 mph - N/A   Clear
4:58 PM 76.3 °F 41.7 °F 29% 30.19 in 10.0 mi NW 6.9 mph - N/A   Clear
5:58 PM 75.0 °F 41.2 °F 30% 30.19 in 10.0 mi NW 11.5 mph - N/A   Clear
6:58 PM 72.0 °F 43.3 °F 36% 30.19 in 10.0 mi NW 4.6 mph - N/A   Clear
7:58 PM 64.9 °F 45.3 °F 49% 30.20 in 10.0 mi NW 3.5 mph - N/A   Clear
8:58 PM 60.3 °F 48.9 °F 66% 30.20 in 10.0 mi Calm Calm - N/A   Clear
9:58 PM 58.5 °F 50.2 °F 74% 30.21 in 10.0 mi West 2.3 mph - N/A   Clear
10:58 PM 55.9 °F 50.2 °F 81% 30.22 in 10.0 mi SW 3.5 mph - N/A   Clear
11:58 PM 54.0 °F 49.1 °F 84% 30.22 in 10.0 mi North 2.3 mph - N/A   Clear